Wind_Speed
16 16 15 15 14 14 13 12 12 11 10 10 10 9 8 7 6 5 5 5 4 4 4 4 3 3 3 4 4 4 4 4 5 5 5 5 6 6 7 7 7 6 6 6 6 7 7 8 7
16 16 15 14 16 16 15 15 13 12 11 11 11 10 9 8 8 6 5 6 5 5 5 4 4 4 4 4 5 5 4 4 5 6 6 6 6 6 6 7 7 6 6 6 6 7 7 7 6
17 17 16 16 17 17 16 15 13 13 12 11 11 11 10 9 9 8 7 7 7 7 6 6 5 6 5 5 4 5 4 5 6 6 6 6 6 6 6 7 6 6 6 6 7 7 7 6 5
17 18 17 17 18 18 17 15 14 14 12 11 11 11 10 9 9 9 8 9 9 9 9 8 8 7 6 5 5 6 5 5 6 6 6 6 6 6 7 6 6 5 5 6 6 6 6 5 5
18 18 19 19 18 18 17 16 15 13 12 12 12 11 10 10 10 9 9 9 9 10 9 9 9 8 8 7 7 7 6 6 6 6 6 6 7 6 6 5 5 4 5 5 6 6 6 5 4
19 19 20 20 19 18 16 15 15 14 13 13 13 11 11 11 10 10 9 9 9 9 9 9 9 9 8 8 8 7 6 6 6 6 5 6 6 6 5 4 4 4 4 4 4 4 4 3 2
17 18 20 20 19 18 16 15 15 14 13 13 13 12 12 11 11 10 10 9 9 8 8 9 9 8 8 7 6 7 6 6 6 5 5 5 5 5 5 4 3 3 3 4 3 3 2 2 2
17 18 20 20 19 17 16 15 14 14 13 13 13 13 12 12 11 11 10 10 9 8 8 8 8 8 8 7 7 6 6 5 5 5 6 6 5 5 4 4 4 4 4 4 3 3 3 2 2
16 17 19 19 18 17 16 15 14 14 14 14 13 13 12 12 12 12 11 10 9 9 8 8 8 7 7 7 7 6 6 5 5 5 6 6 6 5 5 5 5 5 4 4 3 3 2 2 2
18 17 17 17 17 17 16 15 14 14 14 13 13 13 12 12 12 12 11 10 10 9 9 8 7 7 7 6 6 6 6 5 5 5 5 5 5 5 4 4 5 4 3 3 2 1 1 1 0
16 14 15 15 16 16 15 15 13 13 13 13 13 12 13 13 13 12 11 11 10 10 9 8 8 7 6 6 5 5 5 5 5 4 4 5 5 4 4 4 4 4 3 2 1 0 0 1 0
13 12 13 14 15 15 15 15 14 13 12 13 12 12 12 12 12 12 11 11 10 9 9 8 8 7 6 6 5 5 5 5 5 5 5 5 5 4 4 3 3 2 2 1 1 1 0 1 0
11 11 11 12 14 15 15 15 14 14 13 13 12 12 12 11 10 10 10 9 9 9 9 8 8 8 8 7 5 5 5 5 4 5 4 4 3 3 3 2 2 1 1 1 1 1 1 1 1
8 9 9 11 12 13 15 15 14 14 13 13 12 11 12 11 10 10 10 9 9 9 10 9 8 8 8 8 7 6 5 5 4 4 3 3 3 3 2 2 2 1 0 0 1 1 2 2 2
6 7 8 9 10 12 13 14 14 13 13 13 12 11 11 11 10 10 10 10 9 9 9 9 9 8 8 8 8 7 6 5 4 3 3 2 2 2 2 1 1 0 1 1 2 2 2 3 3
6 6 6 7 8 10 11 13 13 13 13 13 11 10 10 10 10 10 10 10 9 9 9 9 8 8 9 8 8 7 6 5 4 3 3 2 2 1 1 1 0 0 1 2 3 3 3 3 3
6 5 5 5 6 7 9 11 11 11 12 12 11 10 9 10 9 9 9 9 9 9 8 8 9 9 8 8 7 7 6 6 5 4 3 3 2 1 1 0 1 1 2 2 3 3 3 3 4
4 3 4 5 4 4 6 8 9 10 11 11 11 11 11 10 10 8 8 8 8 9 9 9 9 9 8 8 8 7 7 7 6 5 5 3 2 2 1 1 1 2 2 3 3 4 4 4 5
4 3 2 3 4 5 4 5 6 7 9 10 10 10 10 9 10 9 8 8 8 8 9 8 8 8 9 9 8 8 8 7 7 6 5 4 4 2 1 1 2 3 3 4 4 4 4 5 5
5 4 1 2 2 4 5 6 5 5 6 7 8 8 8 8 8 8 7 8 7 8 7 7 7 7 8 8 8 8 8 8 7 6 5 5 4 3 2 2 2 3 4 4 4 4 5 5 5
8 5 2 1 3 5 6 6 6 5 7 7 7 7 7 8 8 7 7 7 7 6 6 6 6 6 6 7 7 7 7 7 6 6 5 5 4 4 3 3 3 4 4 4 4 4 5 5 6
8 5 4 5 6 7 8 8 6 6 6 6 6 7 7 8 7 7 6 6 6 6 5 5 4 5 5 5 6 6 6 6 6 5 4 5 5 4 4 4 4 4 4 4 4 4 5 6 6
9 7 8 8 9 10 10 9 8 6 5 5 5 5 6 6 6 6 5 5 5 5 5 4 4 4 5 5 6 6 6 6 6 5 4 5 5 4 4 5 5 5 6 6 6 6 6 7 7
11 10 11 12 12 12 11 11 9 6 5 6 5 4 4 5 5 5 4 5 5 5 4 3 3 4 5 5 5 6 6 6 6 6 6 5 5 6 5 6 6 6 6 7 7 8 8 8 8
15 14 14 15 14 13 11 11 10 8 7 8 6 5 3 4 4 4 4 5 5 4 4 4 3 3 4 5 5 6 6 6 6 6 6 6 6 6 7 7 7 7 8 8 9 9 9 9 9
15 15 15 16 15 13 11 12 11 10 10 8 7 6 4 4 4 3 5 4 4 4 4 4 4 4 4 5 6 6 6 6 7 7 6 7 7 7 7 8 8 9 9 10 10 10 10 10 11
16 15 14 16 16 16 14 13 13 12 11 10 9 6 4 5 4 5 6 5 4 4 4 5 5 4 5 5 6 6 7 7 7 8 7 8 8 8 9 9 10 11 11 11 11 11 12 12 12
17 17 17 18 19 19 17 15 12 12 10 11 10 8 6 7 7 6 7 6 6 5 5 5 5 5 6 6 7 7 7 8 8 9 9 9 10 10 11 11 12 12 13 13 12 12 13 13 13
18 19 19 20 20 20 18 15 13 12 10 10 8 8 9 8 9 8 8 7 7 7 7 6 6 6 7 8 8 9 9 9 9 10 10 11 11 12 12 13 13 13 14 14 13 14 14 14 14
21 19 20 21 21 20 19 17 15 13 12 11 9 8 9 10 11 10 10 9 8 9 8 8 8 8 8 9 10 11 11 11 11 12 12 12 13 13 14 14 14 14 15 14 13 13 14 14 14
Wind_Direction
77 76 70 65 60 58 57 61 64 64 63 65 66 67 65 63 67 76 80 79 88 87 100 113 117 129 142 158 154 149 149 142 144 145 140 146 153 161 165 161 159 164 168 170 170 165 163 164 160
73 71 68 62 58 55 57 63 67 63 64 65 64 67 67 65 68 75 77 75 78 82 89 104 116 110 114 141 153 149 148 148 144 141 141 147 150 156 162 161 161 162 167 168 164 160 161 166 162
70 69 65 60 58 56 58 64 67 60 61 63 64 66 69 67 67 72 77 78 83 81 86 90 103 103 101 114 134 143 145 130 132 135 137 141 145 152 158 159 155 160 164 162 163 166 167 171 169
68 68 63 59 56 55 56 61 62 60 59 62 63 64 67 66 69 72 75 79 82 78 79 81 86 93 99 105 118 128 126 118 116 128 127 128 136 141 149 154 160 167 171 173 172 169 169 174 179
71 64 59 56 52 51 55 60 61 61 59 62 63 62 66 67 72 76 79 78 78 79 77 81 87 90 90 100 110 116 112 112 111 114 116 127 140 146 152 160 169 177 179 181 181 182 180 183 189
66 62 57 53 50 49 51 58 60 59 59 59 62 61 63 68 71 75 76 77 80 84 81 85 89 96 96 99 101 104 103 111 113 112 110 128 140 149 154 160 167 175 184 185 185 186 180 182 192
67 61 56 49 47 46 48 53 58 58 59 58 60 60 61 66 68 72 76 77 79 83 84 84 88 95 100 106 102 101 105 105 107 110 117 123 128 143 153 157 163 162 172 176 162 165 175 180 191
67 61 54 48 43 45 50 53 55 56 58 58 59 62 65 66 65 69 73 75 77 80 84 85 88 91 93 101 103 98 95 100 107 112 117 119 122 130 137 131 122 121 134 139 138 146 151 163 182
65 60 52 47 43 43 48 53 56 57 57 58 59 60 65 67 67 67 71 74 77 78 81 82 83 90 90 91 88 87 92 99 106 111 110 107 109 114 116 113 113 111 118 124 122 130 138 156 158
65 60 50 46 44 44 48 54 55 58 58 57 59 59 61 66 68 67 68 70 70 72 75 76 79 86 89 88 89 93 95 96 98 99 99 99 102 113 114 100 100 109 106 112 106 123 158 150 162
67 59 55 48 46 48 52 54 54 55 58 58 59 60 61 62 64 65 65 67 67 68 67 68 75 81 84 87 91 95 95 102 101 94 97 99 97 99 100 93 95 104 104 102 94 102 133 139 130
75 62 59 54 51 51 52 53 50 51 55 57 56 55 58 58 58 60 63 66 67 67 68 71 75 76 78 87 93 97 97 101 95 95 97 95 95 98 100 96 91 100 101 93 89 111 80 323 321
87 69 59 58 55 50 49 48 45 45 50 53 53 51 51 53 54 56 61 65 66 70 74 77 82 76 73 78 83 93 94 97 93 94 92 91 99 102 98 97 80 82 84 73 81 70 339 325 301
91 82 62 61 58 50 50 47 43 43 44 44 47 50 49 50 54 56 59 60 62 70 74 75 79 75 70 69 72 83 84 85 80 68 77 102 112 108 105 94 70 47 34 357 332 334 325 318 307
107 88 68 56 58 50 48 48 44 42 41 38 42 46 49 51 53 56 58 59 61 66 67 66 70 71 68 69 71 74 75 73 71 67 80 95 113 119 126 109 86 54 346 321 321 326 322 317 309
123 100 74 56 55 54 44 44 45 43 40 37 41 45 46 50 52 56 62 58 61 66 64 63 63 66 67 64 64 63 64 59 57 65 69 75 99 131 138 142 173 291 316 310 311 314 313 310 308
135 111 78 53 46 51 36 31 36 38 34 31 35 39 40 48 52 56 62 58 61 64 62 60 61 63 63 60 60 60 59 55 52 52 52 57 72 107 89 23 348 329 318 311 311 310 305 306 306
140 128 77 48 40 26 25 24 23 31 32 29 30 35 39 43 43 48 55 59 59 58 58 59 59 60 59 58 56 57 56 52 48 49 52 49 45 71 57 355 340 334 317 307 309 305 293 291 297
178 183 102 49 33 7 7 10 14 28 31 30 26 32 40 40 43 45 45 46 55 54 56 63 60 58 56 54 52 52 50 46 46 48 49 48 44 44 16 328 335 335 321 311 311 309 298 289 288
204 207 212 34 25 345 344 357 15 25 30 29 24 24 33 35 37 41 42 38 47 56 59 62 60 56 51 49 47 50 48 43 41 44 47 43 36 34 27 357 344 336 327 318 309 304 301 298 291
209 214 208 289 305 315 323 346 2 7 17 14 18 17 24 24 29 39 37 30 33 44 51 56 57 51 45 42 41 42 40 37 36 40 46 44 36 30 17 6 353 348 343 335 322 312 298 298 294
221 219 237 250 267 288 299 317 340 354 2 3 6 13 15 16 25 37 32 24 22 27 35 44 48 39 36 33 32 33 34 31 27 26 25 23 24 23 12 4 359 353 353 345 337 327 309 298 296
224 224 237 243 252 271 281 291 306 320 338 344 351 3 8 8 14 13 16 12 11 15 20 23 26 24 25 22 17 20 20 15 12 11 6 4 4 360 359 353 347 345 341 336 331 324 318 307 299
225 228 232 240 252 261 266 278 288 294 313 317 322 333 352 353 350 349 350 0 2 3 4 2 6 12 6 7 6 8 6 3 3 2 360 354 352 346 342 338 331 326 326 325 323 322 318 312 305
221 226 231 237 246 254 255 266 276 284 298 306 308 312 330 328 328 330 333 349 354 349 346 346 346 352 355 355 355 354 353 350 347 345 345 344 340 338 334 328 322 320 317 316 313 312 312 309 306
221 229 237 242 248 250 250 257 267 272 286 291 298 308 311 317 317 311 311 324 338 331 324 324 329 333 332 336 337 339 340 338 335 333 334 338 336 331 327 321 316 314 312 310 307 305 305 303 303
221 229 238 245 251 250 252 256 262 268 276 278 289 293 295 309 314 310 305 303 310 323 314 313 316 313 313 318 320 321 324 324 324 324 326 327 326 324 321 317 314 312 308 306 305 303 302 301 299
227 229 235 243 247 249 249 253 259 266 267 277 292 298 293 294 303 308 300 297 291 300 307 304 304 302 303 304 309 313 313 311 312 316 317 317 317 316 316 316 313 310 308 305 302 301 299 299 297
229 232 236 243 246 249 254 256 265 271 274 279 286 290 294 294 295 296 300 295 293 291 292 296 295 295 292 293 298 304 306 303 303 307 309 308 308 308 310 312 312 310 311 310 306 302 297 297 299
230 234 237 241 244 249 253 259 264 270 272 272 275 280 279 282 287 289 289 291 285 286 286 294 294 291 291 294 303 302 299 300 300 300 300 302 301 302 304 306 308 308 306 307 307 306 304 302 300
Height
5894 5893 5893 5894 5893 5892 5891 5890 5889 5889 5889 5889 5888 5888 5887 5887 5888 5890 5887 5885 5885 5884 5884 5884 5884 5884 5884 5884 5884 5885 5885 5886 5886 5886 5886 5886 5887 5888 5889 5890 5891 5892 5893 5893 5894 5895 5896 5897 5897
5895 5895 5896 5896 5893 5892 5892 5892 5891 5891 5891 5890 5890 5889 5888 5888 5888 5887 5886 5886 5885 5885 5885 5885 5884 5884 5883 5883 5884 5885 5886 5886 5886 5886 5886 5887 5888 5888 5889 5890 5891 5892 5893 5894 5894 5895 5896 5897 5897
5898 5897 5898 5897 5894 5894 5894 5893 5893 5892 5892 5891 5891 5891 5890 5889 5888 5888 5887 5887 5886 5886 5886 5885 5885 5884 5884 5883 5884 5885 5886 5887 5887 5887 5887 5888 5888 5889 5890 5891 5892 5893 5893 5894 5895 5896 5897 5897 5897
5900 5900 5900 5898 5896 5895 5895 5895 5895 5894 5893 5893 5892 5892 5891 5890 5889 5889 5888 5888 5887 5887 5887 5887 5886 5886 5885 5885 5885 5886 5887 5887 5888 5888 5888 5889 5889 5890 5891 5892 5893 5893 5894 5894 5895 5896 5897 5897 5897
5902 5902 5901 5899 5897 5897 5897 5897 5897 5896 5895 5894 5894 5893 5892 5891 5890 5890 5889 5889 5889 5889 5888 5888 5888 5888 5887 5887 5887 5888 5888 5888 5889 5889 5889 5890 5891 5891 5892 5893 5893 5894 5894 5895 5895 5896 5897 5897 5897
5905 5904 5903 5901 5900 5899 5899 5898 5899 5898 5897 5895 5895 5894 5893 5893 5891 5891 5890 5890 5890 5890 5890 5890 5890 5889 5889 5889 5889 5890 5890 5890 5890 5891 5891 5891 5892 5892 5893 5893 5893 5893 5893 5894 5895 5896 5897 5897 5897
5908 5906 5904 5903 5902 5902 5902 5901 5900 5900 5899 5897 5897 5896 5895 5894 5893 5892 5892 5891 5891 5891 5891 5891 5891 5891 5891 5891 5891 5891 5892 5892 5892 5892 5892 5893 5893 5893 5894 5894 5894 5893 5893 5894 5895 5897 5897 5898 5898
5909 5908 5906 5906 5905 5905 5904 5903 5902 5901 5901 5900 5898 5897 5897 5896 5895 5894 5893 5893 5893 5893 5892 5892 5892 5892 5892 5892 5892 5893 5893 5893 5893 5894 5894 5894 5894 5894 5894 5894 5894 5893 5893 5895 5896 5897 5897 5897 5897
5911 5911 5908 5908 5907 5907 5906 5905 5904 5903 5902 5901 5900 5899 5899 5898 5897 5896 5895 5895 5895 5894 5894 5893 5893 5893 5893 5894 5893 5894 5894 5894 5894 5895 5895 5895 5895 5895 5895 5895 5895 5895 5895 5896 5897 5897 5897 5897 5897
5912 5911 5911 5911 5910 5909 5908 5907 5906 5905 5904 5903 5902 5901 5900 5899 5899 5898 5897 5896 5896 5896 5895 5895 5894 5894 5894 5895 5895 5895 5895 5895 5895 5895 5895 5895 5896 5896 5896 5896 5896 5896 5896 5897 5897 5897 5897 5897 5896
5913 5914 5913 5912 5911 5911 5910 5909 5908 5907 5906 5905 5904 5903 5902 5901 5900 5899 5899 5898 5898 5897 5896 5896 5896 5895 5895 5895 5895 5896 5896 5896 5896 5896 5896 5896 5896 5896 5896 5896 5896 5897 5897 5897 5897 5897 5897 5896 5897
5916 5915 5915 5914 5913 5913 5912 5911 5910 5909 5908 5907 5906 5905 5904 5902 5901 5901 5900 5900 5899 5898 5898 5897 5897 5897 5896 5896 5896 5896 5896 5896 5896 5896 5897 5897 5897 5897 5897 5897 5897 5897 5897 5897 5897 5897 5897 5896 5896
5917 5917 5917 5916 5915 5915 5913 5913 5912 5910 5909 5909 5908 5906 5905 5904 5903 5902 5901 5901 5900 5900 5899 5898 5898 5898 5897 5897 5897 5897 5897 5897 5897 5897 5896 5897 5897 5897 5897 5897 5897 5897 5897 5897 5897 5897 5896 5896 5896
5918 5918 5918 5917 5917 5916 5916 5915 5914 5913 5911 5910 5909 5908 5907 5905 5904 5903 5902 5902 5901 5901 5900 5900 5899 5899 5898 5898 5897 5897 5897 5897 5897 5896 5896 5896 5896 5896 5897 5897 5896 5897 5897 5897 5897 5896 5896 5896 5895
5919 5920 5920 5918 5917 5917 5917 5917 5916 5914 5913 5912 5911 5910 5909 5907 5906 5905 5904 5903 5902 5902 5901 5901 5900 5900 5900 5899 5898 5898 5898 5897 5897 5896 5895 5895 5896 5896 5896 5896 5896 5896 5896 5896 5896 5895 5895 5895 5895
5920 5921 5920 5920 5918 5919 5920 5918 5917 5915 5914 5913 5912 5911 5910 5908 5907 5906 5905 5905 5904 5903 5903 5902 5902 5901 5900 5900 5899 5899 5898 5898 5897 5896 5895 5894 5894 5895 5895 5896 5896 5895 5895 5895 5895 5895 5894 5894 5894
5920 5920 5920 5920 5919 5919 5919 5918 5917 5916 5915 5915 5914 5912 5911 5909 5908 5907 5906 5906 5905 5905 5904 5903 5903 5902 5901 5901 5900 5899 5899 5898 5897 5896 5895 5894 5894 5894 5895 5895 5895 5895 5894 5894 5894 5894 5893 5893 5893
5920 5919 5920 5920 5920 5919 5919 5919 5918 5917 5916 5915 5915 5914 5912 5911 5910 5908 5907 5907 5906 5906 5905 5905 5904 5903 5902 5902 5901 5900 5899 5898 5897 5896 5895 5894 5894 5894 5894 5895 5894 5894 5893 5893 5893 5892 5892 5892 5892
5918 5919 5919 5920 5920 5919 5920 5919 5918 5917 5917 5916 5915 5914 5913 5912 5911 5910 5909 5908 5907 5906 5906 5906 5905 5904 5904 5903 5902 5901 5900 5899 5898 5897 5896 5895 5894 5894 5894 5894 5894 5893 5892 5892 5891 5891 5891 5890 5890
5917 5918 5918 5919 5919 5919 5919 5919 5919 5918 5917 5917 5916 5915 5914 5913 5912 5910 5910 5909 5907 5907 5907 5906 5906 5905 5905 5904 5903 5902 5901 5900 5899 5898 5897 5896 5895 5895 5894 5894 5893 5892 5891 5891 5890 5890 5890 5889 5888
5916 5917 5918 5918 5918 5919 5919 5919 5918 5918 5917 5917 5916 5916 5914 5913 5912 5910 5910 5909 5909 5908 5907 5907 5906 5906 5905 5905 5903 5902 5901 5900 5899 5899 5898 5897 5896 5895 5894 5893 5892 5891 5891 5890 5889 5889 5888 5887 5887
5914 5915 5917 5917 5918 5918 5918 5917 5918 5917 5917 5916 5916 5915 5914 5913 5912 5911 5910 5909 5909 5908 5907 5907 5906 5906 5905 5905 5904 5903 5902 5901 5900 5899 5898 5897 5896 5895 5894 5893 5892 5891 5890 5889 5888 5888 5887 5886 5885
5912 5913 5915 5915 5916 5916 5916 5915 5917 5916 5916 5915 5915 5914 5913 5913 5913 5912 5910 5909 5909 5908 5907 5907 5906 5906 5905 5904 5904 5903 5902 5901 5900 5899 5897 5897 5896 5894 5893 5892 5891 5890 5889 5888 5887 5886 5885 5884 5883
5909 5911 5912 5912 5913 5913 5914 5914 5914 5914 5914 5914 5913 5912 5912 5912 5912 5911 5910 5909 5908 5907 5907 5906 5906 5905 5904 5904 5903 5902 5901 5900 5899 5898 5897 5896 5895 5894 5892 5891 5890 5889 5888 5887 5886 5885 5883 5882 5881
5906 5908 5909 5909 5910 5910 5911 5911 5912 5912 5912 5912 5911 5910 5910 5911 5910 5910 5909 5908 5907 5907 5906 5906 5905 5904 5903 5903 5902 5901 5901 5900 5898 5897 5896 5895 5894 5892 5891 5890 5889 5888 5886 5885 5884 5882 5881 5880 5879
5903 5904 5906 5907 5907 5908 5908 5908 5910 5909 5909 5909 5909 5908 5908 5909 5908 5908 5908 5907 5906 5905 5905 5905 5904 5903 5902 5901 5901 5900 5899 5898 5897 5896 5895 5893 5892 5891 5889 5888 5887 5885 5884 5883 5881 5880 5878 5877 5876
5899 5901 5903 5904 5904 5904 5905 5905 5906 5905 5906 5906 5906 5906 5905 5906 5906 5906 5906 5905 5904 5903 5903 5903 5902 5901 5901 5900 5899 5898 5898 5897 5895 5894 5893 5891 5890 5889 5887 5886 5884 5882 5881 5880 5878 5877 5875 5874 5872
5896 5897 5899 5899 5899 5900 5901 5901 5902 5902 5903 5902 5902 5902 5903 5903 5904 5904 5904 5903 5902 5902 5901 5900 5900 5899 5899 5898 5897 5896 5895 5894 5893 5892 5890 5889 5888 5886 5884 5883 5881 5879 5877 5876 5874 5873 5872 5870 5869
5891 5892 5893 5894 5895 5896 5896 5899 5899 5899 5899 5899 5899 5899 5900 5901 5901 5901 5901 5901 5900 5899 5898 5898 5897 5897 5896 5895 5894 5893 5892 5891 5890 5889 5887 5886 5885 5883 5881 5880 5878 5876 5874 5872 5870 5869 5867 5866 5864
5886 5888 5889 5890 5891 5891 5892 5896 5894 5894 5895 5895 5896 5896 5897 5898 5898 5897 5897 5897 5897 5896 5895 5894 5893 5893 5893 5892 5891 5890 5889 5888 5886 5885 5884 5883 5881 5880 5878 5876 5874 5872 5870 5868 5866 5865 5863 5862 5860